Lapse_Rate
6.8 6.5 6.4 6.5 6.7 6.7 6.9 6.8 6.7 6.7 6.6 6.4 6.4 6.6 7.3 6.8 6.6 7.1 7.4 7.5 7.5 7.7 7.7 7.5 7.6 7.6 7.7 7.7 7.7 7.8 7.6 7.6 7.5 7.4 7.3 7.2 7.0 6.7 6.6 6.4 6.3 6.1 5.9 5.4
6.5 6.3 6.6 6.7 6.6 6.4 6.4 6.4 6.3 6.5 6.5 6.3 6.3 6.3 6.9 7.0 6.9 7.1 7.4 7.5 7.5 7.5 7.8 7.7 7.6 7.7 7.9 7.9 7.9 7.8 7.8 7.7 7.5 7.3 7.2 7.0 6.9 6.8 6.7 6.4 6.1 6.0 6.1 5.8
6.9 6.7 6.9 6.8 6.7 6.5 6.4 6.2 6.3 6.5 6.4 6.2 6.0 6.2 6.8 7.1 7.0 7.1 7.3 7.6 7.7 7.8 7.7 7.8 7.8 7.8 8.0 8.2 8.1 7.9 7.7 7.6 7.4 7.3 6.9 7.0 6.9 6.8 6.7 6.6 6.3 6.2 5.5 5.5
6.6 6.7 6.8 6.9 6.7 6.6 6.4 6.6 6.6 6.4 6.2 5.9 5.9 5.1 6.4 6.9 7.0 7.3 7.6 7.6 7.8 7.6 7.7 8.0 7.7 7.7 8.0 8.1 8.1 7.9 7.7 7.6 7.5 7.3 7.1 6.9 6.7 6.6 6.6 6.3 6.2 6.0 5.5 5.5
6.3 6.4 6.6 6.6 7.0 6.9 6.8 6.8 6.7 6.4 6.2 5.9 5.6 5.5 5.9 6.3 7.0 7.5 7.6 7.5 7.5 7.7 7.9 7.9 7.9 7.9 7.8 7.9 7.8 7.7 7.6 7.5 7.4 7.2 7.0 6.7 6.6 6.6 6.7 6.3 6.2 6.1 5.3 5.4
6.6 6.5 6.6 6.7 6.9 7.0 6.6 6.6 6.4 6.3 6.1 5.1 5.8 6.0 5.9 6.6 7.0 7.1 7.3 7.6 7.5 7.4 7.4 7.6 7.7 7.7 7.5 7.5 7.6 7.6 7.6 7.3 7.3 6.9 6.7 6.8 6.5 6.7 6.5 6.5 6.5 6.6 5.8 5.7
5.9 6.0 6.3 6.5 6.6 6.6 6.4 6.4 5.8 5.4 4.6 4.4 6.0 5.8 6.1 6.8 7.1 7.0 7.0 7.3 7.5 7.4 7.4 7.5 7.5 7.3 7.2 7.3 7.3 7.4 7.4 7.4 7.3 7.0 6.8 6.7 6.6 6.8 6.9 7.1 7.0 6.5 6.3 5.9
6.2 5.8 6.2 6.2 6.4 6.9 6.6 6.6 6.8 4.7 4.2 4.8 5.8 5.4 6.4 6.4 6.7 7.0 7.2 7.4 7.4 7.2 7.1 7.1 7.1 7.3 7.2 7.1 7.1 7.1 7.2 7.2 7.1 7.0 6.9 7.0 7.0 7.0 7.1 7.0 7.0 6.5 6.4 6.4
6.4 6.3 6.7 6.6 6.7 7.0 6.4 6.3 6.9 7.1 5.8 5.0 6.1 6.2 6.5 6.3 6.4 6.7 7.0 7.3 7.5 7.5 7.8 7.6 7.2 7.0 6.8 6.8 6.9 7.0 6.9 6.9 6.9 6.9 6.8 6.9 6.9 7.1 7.1 7.0 6.6 6.3 6.4 6.5
7.0 6.7 6.7 6.8 6.7 6.8 6.9 6.8 6.4 6.6 3.8 3.8 5.3 5.6 6.0 6.3 6.3 6.6 7.0 7.3 7.3 7.3 7.3 7.2 7.3 7.1 7.1 7.1 7.1 7.1 7.0 6.9 7.0 7.0 7.0 7.0 7.1 7.0 6.8 6.5 6.4 6.4 6.3 6.3
7.0 7.2 6.6 6.6 6.5 6.7 6.6 6.3 6.6 6.7 6.9 4.8 3.9 6.0 6.5 6.5 6.6 6.8 7.0 7.2 7.3 7.4 7.5 7.5 7.4 7.3 7.2 7.2 7.3 7.3 7.1 7.1 7.1 7.1 7.1 7.0 6.9 6.7 6.5 6.3 6.1 6.2 6.4 6.6
7.2 7.2 7.1 6.7 6.8 6.8 6.8 7.2 6.9 7.1 5.7 6.4 6.7 6.1 6.1 6.3 6.4 6.8 7.1 7.3 7.4 7.6 7.6 7.6 7.7 7.5 7.2 7.3 7.4 7.4 7.4 7.6 7.5 7.2 6.9 6.7 6.4 6.3 6.3 6.3 6.4 6.5 6.6 6.8
7.1 6.6 6.6 6.4 6.2 6.7 6.5 6.5 6.7 6.8 7.0 6.8 5.9 5.9 6.2 6.4 6.1 6.5 6.9 7.2 7.4 7.6 7.7 7.6 7.1 6.9 7.0 7.2 7.2 7.2 7.2 7.2 7.1 6.6 6.3 6.1 6.2 6.1 6.2 6.6 6.7 6.9 6.9 7.0
6.9 6.6 6.4 6.1 6.6 6.8 6.7 7.0 7.0 6.8 6.7 6.2 6.4 6.2 6.0 6.1 6.4 6.7 7.0 7.2 7.3 7.5 7.6 7.4 7.4 7.5 7.4 7.2 7.1 7.3 7.2 7.0 6.6 6.4 6.2 6.2 6.2 6.4 6.5 6.7 6.9 6.9 6.8 6.8
6.2 6.2 6.1 6.2 6.7 6.5 6.6 6.8 7.1 6.9 6.7 6.6 5.9 6.6 6.6 6.6 6.6 6.7 6.7 7.0 7.1 7.2 7.3 7.2 7.3 7.4 7.2 6.8 6.8 6.7 6.7 6.7 6.6 6.5 6.4 6.5 6.5 6.3 6.4 6.3 6.5 6.5 6.5 6.5
6.2 6.0 6.3 6.1 6.3 6.4 6.5 6.6 6.4 6.1 6.1 6.1 5.9 5.9 6.3 6.7 6.8 6.7 6.8 6.7 6.6 6.7 6.7 6.7 6.8 6.6 6.6 6.4 6.1 6.2 6.5 6.5 6.3 6.5 6.4 6.2 6.3 6.5 6.2 6.0 6.0 6.5 6.5 6.7
6.1 5.9 6.1 5.9 6.3 6.0 5.7 5.5 5.9 6.3 6.3 6.3 6.1 6.5 6.5 6.5 6.6 6.7 6.6 6.4 6.3 6.3 6.4 6.3 6.2 6.3 6.7 6.7 6.6 6.2 6.1 6.2 6.1 6.0 5.8 5.8 6.2 6.2 6.2 6.1 6.4 6.4 6.5 6.3
5.9 6.1 6.2 6.0 5.9 5.9 6.2 6.2 7.0 6.8 7.2 6.8 6.6 6.3 6.6 6.4 6.2 6.1 6.1 6.0 6.1 6.0 5.9 6.0 6.0 5.9 5.8 6.0 6.1 6.1 6.0 5.9 5.9 5.9 6.0 6.2 6.2 6.1 6.2 6.2 6.3 6.2 6.2 6.1
5.7 5.6 6.0 6.0 5.4 6.3 6.1 5.8 6.4 7.1 7.4 7.6 7.6 7.0 6.7 6.8 6.7 6.4 6.4 6.4 6.0 5.9 6.0 6.1 6.2 6.1 6.0 5.9 5.9 6.0 6.0 6.0 6.0 6.1 6.1 6.2 6.2 6.2 6.3 6.3 6.3 6.3 6.4 6.4
5.6 6.3 6.5 5.9 5.9 4.6 6.2 6.6 6.6 6.6 6.3 7.2 7.4 7.4 7.0 7.2 7.1 7.1 7.0 6.8 6.5 6.2 5.9 5.8 5.8 5.7 5.7 5.8 5.8 5.8 5.9 6.0 6.1 6.0 6.0 5.9 5.9 6.1 6.2 6.3 6.3 6.3 6.4 6.4
6.3 6.3 6.5 6.3 6.2 6.4 6.3 6.2 6.3 6.2 6.6 7.1 7.5 7.5 7.5 7.6 7.7 7.0 6.7 6.6 6.4 6.3 6.1 6.0 5.9 5.9 5.9 5.9 5.9 6.0 6.0 6.0 6.0 6.0 6.1 6.3 6.4 6.6 6.7 6.8 6.8 6.8 6.7 6.7
6.7 6.4 6.2 6.3 6.1 6.1 6.0 6.1 6.1 6.5 6.9 7.0 7.3 7.5 7.5 7.4 7.2 6.7 6.4 6.2 6.1 6.1 6.1 5.9 5.9 5.9 5.9 5.9 5.9 5.9 6.0 6.1 6.2 6.4 6.6 6.7 6.7 6.8 6.9 6.9 6.9 6.8 6.7 6.6
6.4 6.5 6.5 6.4 6.6 6.6 6.6 6.8 6.9 7.0 7.1 7.1 7.1 7.2 7.3 7.4 7.0 6.7 6.6 6.3 6.3 6.2 6.1 6.0 5.9 6.0 6.1 6.2 6.3 6.3 6.4 6.6 6.7 6.8 6.8 6.9 6.8 6.8 6.7 6.7 6.7 6.6 6.6 6.5
6.4 6.7 6.8 6.9 7.0 6.9 6.8 6.8 6.8 6.7 6.8 6.8 6.9 6.8 7.0 7.2 6.7 6.5 6.4 6.2 6.1 6.0 6.0 6.0 6.0 6.0 6.2 6.4 6.6 6.7 6.9 7.0 6.9 6.8 6.8 6.8 6.8 6.6 6.6 6.6 6.5 6.4 6.2 6.1
6.4 6.6 6.5 6.7 6.8 6.9 6.8 6.6 6.4 6.5 6.6 6.6 6.7 6.7 6.7 6.8 6.7 6.6 6.4 6.4 6.4 6.3 6.3 6.2 6.2 6.2 6.3 6.4 6.5 6.6 6.7 6.7 6.6 6.5 6.5 6.4 6.3 6.2 6.1 6.0 6.0 6.0 5.9 5.9
5.9 6.1 6.4 6.5 6.9 6.9 6.9 6.8 6.7 6.6 6.6 6.6 6.7 6.6 6.6 6.6 6.6 6.5 6.4 6.3 6.3 6.4 6.5 6.4 6.4 6.5 6.6 6.7 6.7 6.7 6.6 6.5 6.4 6.2 6.0 6.0 5.9 5.9 6.0 6.0 6.0 5.8 5.8 5.7
Wind_Speed
2 3 6 6 5 2 5 4 4 2 1 2 6 8 14 7 6 9 9 10 10 11 13 7 9 9 9 8 12 14 13 14 11 10 9 9 9 8 7 15 19 20 21 21
4 5 7 6 6 4 4 3 2 3 1 3 5 10 12 9 8 8 9 10 11 8 8 7 9 8 10 13 16 15 16 15 14 11 11 8 9 7 10 14 17 20 21 24
7 3 7 7 5 6 3 5 4 6 3 2 6 8 7 5 4 6 9 10 9 12 12 9 9 10 8 10 12 15 17 16 16 16 9 3 3 3 2 3 8 17 25 26
4 3 6 4 5 6 6 8 5 3 3 3 2 6 6 5 8 7 11 10 10 8 8 8 9 8 7 9 7 10 12 13 14 15 13 15 11 10 8 8 8 8 22 23
6 9 6 5 7 8 6 6 6 3 3 1 3 2 7 3 5 10 9 7 7 6 8 8 7 7 6 4 6 8 8 8 10 14 15 13 14 10 3 3 7 7 6 16
4 1 4 7 3 5 10 7 7 4 2 3 7 7 5 4 7 4 2 4 7 8 7 7 6 5 3 4 2 5 8 7 9 15 15 16 15 6 4 4 6 6 4 2
2 2 2 4 7 5 3 7 2 2 1 6 3 3 5 6 10 6 8 9 8 6 6 7 8 7 7 7 5 4 8 7 7 11 11 10 10 8 8 7 6 5 4 3
7 4 8 5 7 9 7 8 6 8 4 3 2 7 6 8 4 5 3 5 6 6 4 5 6 5 6 7 6 5 6 6 6 6 6 5 6 5 4 5 4 4 4 3
7 5 1 2 5 10 6 7 5 7 2 3 5 7 8 7 4 2 4 3 4 3 1 3 5 5 5 6 6 4 4 4 4 4 4 4 4 4 4 3 2 2 2 2
7 3 1 3 4 2 7 8 3 2 3 3 5 6 7 2 6 3 4 5 5 5 5 5 5 6 4 5 4 5 5 5 5 5 4 4 4 4 4 4 4 4 3 3
6 4 1 4 7 9 3 4 2 4 5 6 2 7 7 8 6 7 4 2 4 5 4 4 4 3 3 3 4 4 5 5 5 4 3 4 3 2 3 2 1 2 2 3
6 4 4 7 1 1 3 10 7 5 5 3 3 12 3 4 7 7 5 3 4 3 3 3 2 2 4 4 3 3 3 5 5 3 3 2 2 1 1 2 3 3 4 3
10 2 2 6 2 3 4 4 4 5 3 8 5 13 3 3 3 1 1 3 3 3 3 3 3 4 4 3 2 2 2 4 4 3 2 2 1 2 5 4 4 4 4 4
5 5 10 14 3 7 6 6 9 7 3 9 14 4 4 7 7 5 4 3 2 2 2 2 3 3 2 2 3 4 5 5 4 3 2 2 3 4 5 4 4 4 4 5
4 6 7 3 5 3 2 3 9 16 21 11 25 16 9 13 13 9 5 2 4 4 5 4 3 5 4 4 3 3 5 5 3 3 2 5 3 4 4 4 4 3 3 4
2 3 4 6 6 4 4 8 7 11 13 20 15 19 5 13 4 6 7 7 6 5 5 5 5 5 5 5 5 6 6 6 6 5 5 6 5 4 5 5 5 5 4 4
7 5 4 4 8 8 5 27 19 7 10 12 18 19 7 5 8 7 6 6 7 6 5 4 5 4 4 5 4 5 3 1 5 6 5 4 5 6 5 4 4 3 4 2
5 5 4 3 4 6 4 1 21 23 17 13 8 2 6 6 4 6 5 7 7 5 5 3 3 3 3 3 5 4 6 7 7 6 5 6 6 5 4 2 3 2 0 3
4 5 2 4 5 6 4 5 8 10 15 21 17 7 4 6 5 3 4 4 6 5 4 3 3 2 1 3 3 5 5 4 4 5 5 5 3 4 3 3 3 2 2 3
4 4 6 3 5 10 3 2 5 7 10 7 18 14 10 8 6 4 7 5 5 4 3 4 2 2 3 4 4 5 5 5 6 6 6 4 4 3 3 3 3 1 1 3
5 4 11 5 4 7 5 4 4 6 6 4 3 8 13 5 2 7 8 5 4 3 4 4 3 2 2 3 3 4 5 5 5 5 4 4 3 4 3 3 1 1 2 2
8 7 4 2 2 10 5 4 8 2 2 3 4 5 8 9 7 8 8 6 5 5 5 5 5 5 4 5 5 5 5 5 6 5 5 4 3 3 2 1 1 1 1 2
3 6 6 7 5 3 5 4 1 1 4 4 7 7 10 10 7 7 6 6 5 6 5 4 5 5 6 6 5 3 5 6 5 5 5 4 4 3 2 2 3 2 1 2
3 2 3 3 4 4 5 1 3 6 5 6 6 7 6 9 8 7 6 5 5 5 5 4 5 5 4 5 5 5 6 7 5 6 5 5 5 5 3 2 2 2 2 2
3 6 5 3 1 2 4 6 6 7 8 9 6 5 7 8 5 6 6 6 5 4 3 3 4 3 4 5 5 6 7 6 6 7 5 5 3 4 5 3 4 4 4 5
5 7 5 6 9 6 7 8 8 10 8 9 8 5 4 4 7 5 6 4 3 3 2 2 2 3 4 5 5 5 5 5 5 5 5 6 6 5 4 4 5 9 13 15
Wind_Direction
1 132 196 186 177 142 125 134 177 225 287 203 233 265 277 283 286 272 264 261 257 246 259 231 229 222 208 198 198 198 192 195 183 195 193 196 194 190 188 192 194 188 187 182
69 222 199 132 133 116 117 132 227 289 38 157 329 274 271 267 255 238 242 253 246 264 272 266 255 226 207 210 205 200 201 191 193 196 201 204 201 203 198 192 195 196 192 186
159 208 150 139 141 143 159 164 188 223 354 66 334 283 265 292 264 276 263 250 265 246 271 266 256 243 222 212 201 203 202 195 194 194 185 91 80 84 134 179 191 199 196 197
207 143 131 125 174 135 191 200 165 173 94 237 18 285 293 273 299 300 280 266 267 292 263 256 269 269 244 242 213 203 204 200 196 185 185 194 199 202 209 200 201 202 200 197
230 160 143 173 188 168 217 134 150 105 117 52 321 331 271 347 292 268 265 309 316 322 301 303 300 295 284 262 214 200 190 186 182 187 194 200 210 218 145 151 179 199 209 203
158 186 160 189 98 146 147 79 53 61 93 287 199 176 257 211 218 276 268 349 336 329 356 0 352 4 13 22 96 179 175 184 176 193 199 206 210 170 156 168 189 195 194 198
105 198 185 139 88 40 91 97 18 346 3 231 339 166 244 241 240 228 285 308 317 337 17 19 19 18 20 23 47 109 143 170 175 194 197 198 206 169 185 182 195 174 189 187
160 227 167 183 167 163 186 159 164 197 199 242 58 233 254 236 324 276 296 313 322 345 6 29 23 21 35 35 32 70 138 129 147 159 174 167 165 177 174 168 176 185 190 192
165 240 64 168 146 146 207 212 169 105 36 64 215 283 291 264 225 55 1 358 352 275 161 36 38 37 33 48 40 53 101 111 120 129 133 166 156 163 178 139 144 174 174 188
198 122 343 150 110 25 162 155 78 5 138 245 264 274 226 152 198 123 22 15 356 15 47 41 27 16 21 34 46 52 80 115 138 135 144 157 168 170 164 151 187 199 192 186
146 116 312 118 211 163 135 182 137 136 168 187 230 247 208 212 155 145 131 83 59 42 32 32 23 19 35 40 35 42 59 81 87 96 106 116 119 120 126 154 200 226 212 200
186 136 160 199 278 295 310 200 161 163 225 246 166 257 7 183 155 142 137 75 60 55 50 48 73 62 64 76 56 55 60 79 77 76 81 84 84 81 218 199 228 215 232 207
162 196 67 343 350 3 216 191 153 110 91 204 151 253 360 126 165 199 154 349 356 358 41 16 52 94 84 64 80 70 68 74 78 73 64 54 135 218 247 241 242 229 223 221
124 131 199 217 212 145 196 200 193 171 171 223 233 219 210 216 208 222 249 249 309 82 40 34 50 30 65 108 81 54 33 29 27 35 59 309 296 266 264 262 247 246 238 234
122 196 185 168 140 101 144 167 191 202 222 196 250 234 194 202 203 208 225 168 132 110 72 63 58 34 22 52 78 97 80 57 23 37 2 312 300 295 299 289 268 247 234 250
131 227 194 239 207 190 277 246 208 243 239 242 255 254 174 207 138 171 205 172 161 139 120 91 61 50 40 25 21 28 27 23 15 24 17 343 341 328 321 317 304 289 253 230
156 152 148 226 170 165 240 228 228 224 215 225 233 248 168 177 196 207 195 165 155 137 107 88 82 62 28 11 11 30 16 11 33 25 10 344 353 360 335 323 289 259 254 168
151 156 169 127 132 208 232 93 210 217 229 214 235 128 188 205 127 127 136 138 120 112 100 81 77 76 51 13 10 353 16 23 22 12 360 4 2 330 335 312 270 277 268 225
181 154 179 173 208 309 252 188 152 175 247 228 224 168 139 132 88 57 140 142 146 148 150 150 143 127 54 33 4 13 23 16 13 5 358 349 345 326 333 324 308 251 203 216
199 178 197 149 183 208 266 189 142 104 273 213 194 180 162 157 166 200 169 142 130 142 163 150 128 74 34 10 10 14 6 359 0 352 342 329 333 323 314 306 307 260 238 244
181 190 214 189 214 283 239 173 165 126 244 38 179 162 156 178 264 134 129 113 132 147 124 108 96 77 11 355 6 358 351 350 336 340 322 325 333 306 284 299 295 300 283 297
169 164 181 120 178 252 174 67 171 216 20 119 106 128 117 125 106 112 124 128 118 104 73 49 64 49 30 30 32 10 9 348 339 333 325 325 325 311 300 260 293 305 272 270
198 178 169 184 201 207 227 195 332 149 148 165 132 136 133 128 125 137 129 122 112 104 81 48 46 48 41 26 35 16 343 341 332 326 325 319 315 312 299 303 299 310 242 250
263 182 152 105 212 204 219 176 210 186 157 130 116 125 123 127 137 124 120 111 108 83 62 30 28 35 31 18 15 9 356 353 345 338 330 326 325 315 306 287 238 232 258 258
183 144 160 280 262 99 234 219 187 142 124 118 113 125 138 130 129 129 124 114 98 79 41 36 35 22 356 358 5 10 3 355 350 334 328 329 311 307 305 268 249 234 232 213
188 176 171 216 187 184 205 184 161 150 153 146 132 116 70 111 125 107 104 87 83 57 31 40 33 357 344 348 350 6 9 6 355 333 334 329 322 317 302 298 299 269 270 269